• Join FlightAware (Why Join?)
  • Login
  • US Flag 
11:00PM EDT


 

Airport Tracker/Info


-or-


 

Live Flight TrackerFlight Track Log ✈ N400PU ✈ 18-Jun-2013 ✈ KLAF - KMIE

Flight Track Log - Related Links

Times and Time Zones

All times are in EDT time to prevent confusion due to time zone crossing. See the N400PU flight status page for this flight to view local times or setup timezone preferences in your user account.

Time Position Orientation Groundspeed Altitude Reporting Facility
EDT Latitude Longitude Course Direction KTS MPH feet Rate Location/Type
10:10AM 40.4058 -86.9031 96° East 195 224 1,700  Level Chicago Center
10:10AM 40.4031 -86.8672 96° East 197 227 3,000 2,280 Climbing Chicago Center
10:11AM 40.3975 -86.7933 96° East 217 250 5,200 1,980 Climbing Chicago Center
10:12AM 40.3867 -86.6914 98° East 268 308 7,000 840 Climbing Chicago Center
10:13AM 40.3739 -86.5817 99° East 293 337 7,000  Level Chicago Center
10:14AM 40.3631 -86.4800 98° East 294 338 7,000  Level Chicago Center
10:15AM 40.3522 -86.3703 97° East 292 336 7,000  Level Chicago Center
10:16AM 40.3408 -86.2686 98° East 293 337 7,000  Level Chicago Center
10:18AM 40.3267 -86.1244 97° East 291 335 7,000 -420 Level Chicago Center
10:19AM 40.3144 -86.0233 99° East 285 328 6,000 -1,380 Descending Chicago Center
10:20AM 40.3039 -85.9231 98° East 280 322 4,200 -1,020 Descending Chicago Center
10:21AM 40.2764 -85.8353 112° Southeast 276 318 4,000 -120 Descending Indianapolis Center
10:22AM 40.2453 -85.7489 115° Southeast 267 307 4,000 -60 Level Indianapolis Center
10:23AM 40.2075 -85.6425 115° Southeast 266 306 3,900 -540 Descending Indianapolis Center
10:24AM 40.1750 -85.5553 116° Southeast 267 307 3,000 -480 Descending Indianapolis Center
10:25AM 40.1447 -85.4775 117° Southeast 258 297 3,000  Level Indianapolis Center
10:26AM 40.1217 -85.4150 116° Southeast 226 260 3,000  Level Indianapolis Center
10:27AM 40.1014 -85.3572 115° Southeast 197 227 3,000  Level Indianapolis Center
10:28AM 40.1092 -85.3003 80° East 174 200 3,000  Level Indianapolis Center
10:29AM 40.1369 -85.2861 21° North 171 197 3,000 -300 Level Indianapolis Center
10:30AM 40.1836 -85.3244 328° Northwest 168 193 2,400 -600 Descending Indianapolis Center